Location: Shepherdstown, WV
(39.4326°N, 77.8042°W)
Time: 14:22:46
(UTC-04:00)

Vanguard 1 Rocket - Pass Details

Date: 13 August 2021
Orbit: 650 x 4226 km, 34.3° (Epoch: 20 September)

Event Time Altitude Azimuth Distance (km) Brightness Sun altitude
Rises 14:56:07 0° 284° (WNW) 7,207 12.2 56.7°
Reaches altitude 10° 15:02:53 10° 274° (W) 5,514 11.9 55.7°
Maximum altitude 15:13:16 23° 229° (SW) 3,326 11.5 54.1°
Drops below altitude 10° 15:19:59 10° 180° (S) 3,406 10.8 53.1°
Sets 15:22:58 0° 165° (SSE) 3,991 10.8 52.6°
